User: anonymous   Login
Location: Maiden_LMO
(35.5760°N, 81.2120°W)
Time: 10:46:34
(UTC-05:00)
Language:

ADEOS II - Orbit

View from above orbital plane
View from above orbital plane
View from above satellite
View from above satellite

Ground track
Ground track

The orbit data is extracted from the following two-line orbital elements,

1 27597U 02056A   16040.53022512  .00000140  00000-0  74261-4 0  9993
2 27597  98.3091  26.9023 0001365  41.0193  67.1743 14.27178886685006
Epoch (UTC): 09 February 2016 12:43:31
Eccentricity: 0.0001365
inclination: 98.3091°
perigee height: 800 km
apogee height: 802 km
right ascension of ascending node: 26.9023°
argument of perigee: 41.0193°
revolutions per day: 14.27178886
mean anomaly at epoch: 67.1743°
orbit number at epoch: 68500

The dashed part of the orbit path shows where the satellite is in the earth's shadow,  

DLR